QPF
0.00 0.00 0.00 0.00 0.00 0.00 0.00 0.00 0.00 0.00 0.00 0.00 0.00 0.00 0.00 0.00 0.00 0.00 0.00 0.00 0.00 0.00 0.00 0.00 0.00 0.00 0.00 0.00 0.00 0.00 0.00 0.00 0.00 0.00 0.00 0.00 0.00 0.00 0.00 0.00 0.00 0.00 0.00 0.00 0.00
0.00 0.00 0.00 0.00 0.00 0.00 0.00 0.00 0.00 0.00 0.00 0.00 0.00 0.00 0.00 0.00 0.00 0.00 0.00 0.00 0.00 0.00 0.00 0.00 0.00 0.00 0.00 0.00 0.00 0.00 0.00 0.00 0.00 0.00 0.00 0.00 0.00 0.00 0.00 0.00 0.00 0.00 0.00 0.00 0.00
0.00 0.00 0.00 0.00 0.00 0.00 0.00 0.00 0.00 0.00 0.00 0.00 0.00 0.00 0.00 0.00 0.00 0.00 0.00 0.00 0.00 0.00 0.00 0.00 0.00 0.00 0.00 0.00 0.00 0.00 0.00 0.00 0.00 0.00 0.00 0.00 0.00 0.00 0.00 0.00 0.00 0.00 0.00 0.00 0.00
0.00 0.00 0.00 0.00 0.00 0.00 0.00 0.00 0.00 0.00 0.00 0.00 0.00 0.00 0.00 0.00 0.00 0.00 0.00 0.00 0.00 0.00 0.00 0.00 0.00 0.00 0.00 0.00 0.00 0.00 0.00 0.00 0.00 0.00 0.00 0.00 0.00 0.00 0.00 0.00 0.00 0.00 0.00 0.00 0.00
0.00 0.00 0.00 0.00 0.00 0.00 0.00 0.00 0.00 0.00 0.00 0.00 0.00 0.00 0.00 0.00 0.00 0.00 0.00 0.00 0.00 0.00 0.00 0.00 0.00 0.00 0.00 0.00 0.00 0.00 0.00 0.00 0.00 0.00 0.00 0.00 0.00 0.00 0.00 0.00 0.00 0.00 0.00 0.00 0.00
0.00 0.00 0.00 0.00 0.00 0.00 0.00 0.00 0.00 0.00 0.00 0.00 0.00 0.00 0.00 0.00 0.00 0.00 0.00 0.00 0.00 0.00 0.00 0.00 0.00 0.00 0.00 0.00 0.00 0.00 0.00 0.00 0.00 0.00 0.00 0.00 0.00 0.00 0.00 0.00 0.00 0.00 0.00 0.00 0.00
0.00 0.00 0.00 0.00 0.00 0.00 0.00 0.00 0.00 0.00 0.00 0.00 0.00 0.00 0.00 0.00 0.00 0.00 0.00 0.00 0.00 0.00 0.00 0.00 0.00 0.00 0.00 0.00 0.00 0.00 0.00 0.00 0.00 0.00 0.00 0.00 0.00 0.00 0.00 0.00 0.00 0.00 0.00 0.00 0.00
0.00 0.00 0.00 0.00 0.00 0.00 0.00 0.00 0.00 0.00 0.00 0.00 0.00 0.00 0.00 0.00 0.00 0.00 0.00 0.00 0.00 0.00 0.00 0.00 0.00 0.00 0.00 0.00 0.00 0.00 0.00 0.00 0.00 0.00 0.00 0.00 0.00 0.00 0.00 0.00 0.00 0.00 0.00 0.00 0.00
0.00 0.00 0.00 0.00 0.00 0.00 0.00 0.00 0.00 0.00 0.00 0.00 0.00 0.00 0.00 0.00 0.00 0.00 0.00 0.00 0.00 0.00 0.00 0.00 0.00 0.00 0.00 0.00 0.00 0.00 0.00 0.00 0.00 0.00 0.00 0.00 0.00 0.00 0.00 0.00 0.00 0.00 0.00 0.00 0.00
0.00 0.00 0.00 0.00 0.00 0.00 0.00 0.00 0.00 0.00 0.00 0.00 0.00 0.00 0.00 0.00 0.00 0.00 0.00 0.00 0.00 0.00 0.00 0.00 0.00 0.00 0.00 0.00 0.00 0.00 0.00 0.00 0.00 0.00 0.00 0.00 0.00 0.00 0.00 0.00 0.00 0.00 0.00 0.00 0.00
0.00 0.00 0.00 0.00 0.00 0.00 0.00 0.00 0.00 0.00 0.00 0.00 0.00 0.00 0.00 0.00 0.00 0.00 0.00 0.00 0.00 0.00 0.00 0.00 0.00 0.00 0.00 0.00 0.00 0.00 0.00 0.00 0.00 0.00 0.00 0.00 0.00 0.00 0.00 0.00 0.00 0.00 0.00 0.00 0.00
0.00 0.00 0.00 0.00 0.00 0.00 0.00 0.00 0.00 0.00 0.00 0.00 0.00 0.00 0.00 0.00 0.00 0.00 0.00 0.00 0.00 0.00 0.00 0.00 0.00 0.00 0.00 0.00 0.00 0.00 0.00 0.00 0.00 0.00 0.00 0.00 0.00 0.00 0.00 0.00 0.00 0.00 0.00 0.00 0.00
0.00 0.00 0.00 0.00 0.00 0.00 0.00 0.00 0.00 0.00 0.00 0.00 0.00 0.00 0.00 0.00 0.00 0.00 0.00 0.00 0.00 0.00 0.00 0.00 0.00 0.00 0.00 0.00 0.00 0.00 0.00 0.00 0.00 0.00 0.00 0.00 0.00 0.00 0.00 0.00 0.00 0.00 0.00 0.00 0.00
0.00 0.00 0.00 0.00 0.00 0.00 0.00 0.00 0.00 0.00 0.00 0.00 0.00 0.00 0.00 0.00 0.00 0.00 0.00 0.00 0.00 0.00 0.00 0.00 0.00 0.00 0.00 0.00 0.00 0.00 0.00 0.00 0.00 0.00 0.00 0.00 0.00 0.00 0.00 0.00 0.00 0.00 0.00 0.00 0.00
0.00 0.00 0.00 0.00 0.00 0.00 0.00 0.00 0.00 0.00 0.00 0.00 0.00 0.00 0.00 0.00 0.00 0.00 0.00 0.00 0.00 0.00 0.00 0.00 0.00 0.00 0.00 0.00 0.00 0.00 0.00 0.00 0.00 0.00 0.00 0.00 0.00 0.00 0.00 0.00 0.00 0.00 0.00 0.00 0.00
0.00 0.00 0.00 0.00 0.00 0.00 0.00 0.00 0.00 0.00 0.00 0.00 0.00 0.00 0.00 0.00 0.00 0.00 0.00 0.00 0.00 0.00 0.00 0.00 0.00 0.00 0.00 0.00 0.00 0.00 0.00 0.00 0.00 0.00 0.00 0.00 0.00 0.00 0.00 0.00 0.00 0.00 0.00 0.00 0.00
0.00 0.00 0.00 0.00 0.00 0.00 0.00 0.00 0.00 0.00 0.00 0.00 0.00 0.00 0.00 0.00 0.00 0.00 0.00 0.00 0.00 0.00 0.00 0.00 0.00 0.00 0.00 0.00 0.00 0.00 0.00 0.00 0.00 0.00 0.00 0.00 0.00 0.00 0.00 0.00 0.00 0.00 0.00 0.00 0.00
0.00 0.00 0.00 0.00 0.00 0.00 0.00 0.00 0.00 0.00 0.00 0.00 0.00 0.00 0.00 0.00 0.00 0.00 0.00 0.00 0.00 0.00 0.00 0.00 0.00 0.00 0.00 0.00 0.00 0.00 0.00 0.00 0.00 0.00 0.00 0.00 0.00 0.00 0.00 0.00 0.00 0.00 0.00 0.00 0.00
0.00 0.00 0.00 0.00 0.00 0.00 0.00 0.00 0.00 0.00 0.00 0.00 0.00 0.00 0.00 0.00 0.00 0.00 0.00 0.00 0.00 0.00 0.00 0.00 0.00 0.00 0.00 0.00 0.00 0.00 0.00 0.00 0.00 0.00 0.00 0.00 0.00 0.00 0.00 0.00 0.00 0.00 0.00 0.00 0.00
0.00 0.00 0.00 0.00 0.00 0.00 0.00 0.00 0.00 0.00 0.00 0.00 0.00 0.00 0.00 0.00 0.00 0.00 0.00 0.00 0.00 0.00 0.00 0.00 0.00 0.00 0.00 0.00 0.00 0.00 0.00 0.00 0.00 0.00 0.00 0.00 0.00 0.00 0.00 0.00 0.00 0.00 0.00 0.00 0.00
0.00 0.00 0.00 0.00 0.00 0.00 0.00 0.00 0.00 0.00 0.00 0.00 0.00 0.00 0.00 0.00 0.00 0.00 0.00 0.00 0.00 0.00 0.00 0.00 0.00 0.00 0.00 0.00 0.00 0.00 0.00 0.00 0.00 0.00 0.00 0.00 0.00 0.00 0.00 0.00 0.00 0.00 0.00 0.00 0.00
0.00 0.00 0.00 0.00 0.00 0.00 0.00 0.00 0.00 0.00 0.00 0.00 0.00 0.00 0.00 0.00 0.00 0.00 0.00 0.00 0.00 0.00 0.00 0.00 0.00 0.00 0.00 0.00 0.00 0.00 0.00 0.00 0.00 0.00 0.00 0.00 0.00 0.00 0.00 0.00 0.00 0.00 0.00 0.00 0.00
0.00 0.00 0.00 0.00 0.00 0.00 0.00 0.00 0.00 0.00 0.00 0.00 0.00 0.00 0.00 0.00 0.00 0.00 0.00 0.00 0.00 0.00 0.00 0.00 0.00 0.00 0.00 0.00 0.00 0.00 0.00 0.00 0.00 0.00 0.00 0.00 0.00 0.00 0.00 0.00 0.00 0.00 0.00 0.00 0.00
0.00 0.00 0.00 0.00 0.00 0.00 0.00 0.00 0.00 0.00 0.00 0.00 0.00 0.00 0.00 0.00 0.00 0.00 0.00 0.00 0.00 0.00 0.00 0.00 0.00 0.00 0.00 0.00 0.00 0.00 0.00 0.00 0.00 0.00 0.00 0.00 0.00 0.00 0.00 0.01 0.10 0.05 0.00 0.00 0.01
0.00 0.00 0.00 0.00 0.00 0.00 0.00 0.00 0.00 0.00 0.00 0.00 0.00 0.00 0.00 0.00 0.00 0.00 0.00 0.00 0.00 0.00 0.00 0.00 0.00 0.00 0.00 0.00 0.00 0.00 0.00 0.00 0.00 0.00 0.00 0.00 0.00 0.00 0.00 0.00 0.01 0.04 0.05 0.00 0.01
0.00 0.00 0.00 0.00 0.00 0.00 0.00 0.00 0.00 0.00 0.00 0.00 0.00 0.00 0.00 0.00 0.00 0.00 0.00 0.00 0.00 0.00 0.00 0.00 0.00 0.00 0.00 0.00 0.00 0.00 0.00 0.00 0.00 0.00 0.00 0.00 0.00 0.00 0.00 0.00 0.00 0.04 0.03 0.00 0.00
0.00 0.00 0.00 0.00 0.00 0.00 0.00 0.00 0.00 0.00 0.00 0.00 0.00 0.00 0.00 0.00 0.00 0.00 0.00 0.00 0.00 0.00 0.00 0.00 0.00 0.00 0.00 0.00 0.00 0.00 0.00 0.00 0.00 0.00 0.00 0.00 0.00 0.01 0.00 0.00 0.00 0.00 0.05 0.01 0.02
MSLP
1018.38 1017.90 1017.53 1017.07 1016.50 1015.91 1015.44 1014.95 1014.47 1013.81 1013.27 1012.70 1012.10 1011.62 1011.05 1010.59 1009.59 1009.46 1007.98 1005.50 1005.41 1005.50 1005.97 1005.66 1005.95 1005.78 1005.12 1004.69 1003.95 1003.60 1004.53 1003.66 1002.92 1002.17 1001.47 1001.50 1002.29 1002.93 1002.79 1003.05 1003.42 1003.49 1004.49 1005.48 1006.62
1018.80 1018.25 1017.64 1017.04 1016.49 1016.00 1015.44 1014.87 1014.42 1013.96 1013.44 1012.79 1012.06 1011.50 1011.15 1010.53 1009.34 1007.46 1004.68 1004.72 1004.72 1005.36 1005.84 1005.34 1004.76 1004.36 1004.30 1003.30 1002.80 1003.33 1002.78 1001.99 1000.52 1000.40 1000.30 1000.52 1001.32 1003.13 1002.92 1002.83 1004.06 1004.52 1004.94 1005.80 1006.63
1018.78 1018.40 1017.93 1017.30 1016.58 1015.92 1015.26 1014.67 1014.10 1013.59 1013.08 1012.67 1012.17 1011.47 1010.95 1010.61 1009.15 1005.18 1004.12 1004.42 1004.81 1005.08 1004.94 1004.72 1004.18 1003.81 1003.51 1002.76 1002.03 1001.83 1001.60 1000.38 999.81 999.35 999.49 1000.26 1001.07 1002.33 1002.64 1003.06 1003.46 1004.30 1005.03 1005.71 1006.50
1019.04 1018.48 1017.84 1017.23 1016.73 1016.04 1015.24 1014.53 1013.87 1013.29 1012.80 1012.39 1011.96 1011.28 1010.47 1010.15 1007.92 1004.92 1004.69 1004.75 1004.82 1005.09 1005.16 1004.57 1004.05 1003.82 1003.40 1002.64 1001.74 1001.54 1000.32 999.80 999.13 998.76 998.70 999.52 1000.38 1001.38 1001.04 1001.30 1001.91 1003.43 1004.32 1005.41 1006.25
1019.28 1018.63 1017.90 1017.16 1016.44 1015.75 1015.12 1014.46 1013.81 1013.13 1012.55 1012.20 1011.95 1011.47 1010.14 1009.26 1006.12 1004.50 1004.79 1005.19 1005.48 1005.46 1004.82 1004.50 1003.99 1003.51 1002.96 1002.34 1001.71 1001.12 1000.36 999.81 999.03 998.59 998.37 998.40 999.00 999.51 1000.83 1000.17 1001.59 1002.98 1004.06 1004.96 1005.81
1019.26 1018.71 1017.98 1017.24 1016.53 1015.66 1014.73 1013.96 1013.33 1012.72 1012.20 1012.04 1011.81 1011.65 1011.06 1008.10 1004.07 1004.12 1004.60 1005.20 1004.99 1005.07 1004.39 1004.11 1003.52 1003.05 1002.72 1002.40 1002.10 1001.10 1000.55 999.95 999.18 998.63 998.26 998.40 998.50 998.83 999.14 1000.13 1002.13 1002.54 1003.28 1004.39 1005.14
1019.44 1018.77 1017.97 1017.09 1016.26 1015.50 1014.61 1013.65 1012.68 1011.98 1011.62 1011.52 1011.57 1011.16 1009.81 1005.88 1003.70 1003.92 1004.09 1004.20 1004.31 1004.15 1004.06 1003.50 1003.03 1003.04 1002.88 1002.78 1002.10 1001.64 1001.42 1000.26 999.36 998.58 998.27 998.04 998.35 998.72 998.87 999.18 1000.80 1002.09 1002.83 1003.73 1004.69
1019.61 1018.92 1018.22 1017.34 1016.31 1015.33 1014.35 1013.16 1011.82 1011.19 1010.82 1010.92 1010.98 1010.60 1007.90 1004.04 1003.10 1003.29 1003.46 1003.56 1003.51 1003.49 1003.38 1002.81 1002.56 1002.71 1002.88 1002.81 1002.65 1002.52 1001.91 1001.07 999.16 998.52 998.07 997.94 998.64 998.55 998.44 999.20 1000.74 1001.46 1002.21 1002.80 1003.59
1019.19 1018.59 1017.72 1016.90 1016.07 1015.29 1014.28 1012.50 1010.52 1010.16 1010.11 1010.66 1010.48 1009.58 1006.15 1002.72 1002.57 1001.61 1001.90 1002.41 1002.89 1003.08 1002.88 1002.51 1002.35 1002.81 1003.06 1003.44 1003.47 1003.09 1002.48 1001.22 999.35 997.88 997.70 997.60 998.20 998.09 998.30 999.07 1000.18 1000.27 1001.32 1001.78 1002.60
1019.02 1018.21 1017.34 1016.59 1015.64 1014.91 1013.86 1011.36 1008.97 1009.52 1009.56 1009.71 1008.90 1008.20 1005.25 1002.48 1001.42 1001.29 1001.13 1001.47 1001.91 1002.37 1002.70 1002.66 1002.73 1003.16 1003.58 1003.89 1003.78 1003.19 1002.24 1000.99 999.75 998.34 997.33 997.82 997.88 997.91 997.82 997.84 998.47 999.40 1000.42 1000.74 1001.53
1019.25 1018.42 1017.47 1016.47 1015.23 1014.61 1013.88 1011.52 1009.45 1009.29 1008.45 1008.06 1006.82 1004.90 1003.23 1001.75 1001.40 1000.73 1000.70 1000.97 1001.34 1001.86 1002.29 1002.20 1003.08 1003.18 1003.39 1003.31 1002.90 1002.45 1001.76 1000.87 999.47 998.29 998.29 998.17 998.15 998.01 997.67 997.46 997.78 998.63 999.43 1000.01 1000.27
1019.24 1018.39 1017.39 1016.38 1014.72 1013.85 1014.23 1012.52 1009.92 1008.98 1007.11 1006.66 1005.67 1004.11 1003.17 1002.21 1001.34 1000.23 999.62 1000.66 1001.24 1001.49 1001.66 1002.21 1002.20 1002.09 1002.18 1002.04 1001.89 1001.66 1001.29 1000.40 999.40 998.50 998.18 998.23 998.23 997.67 997.30 997.08 996.73 997.10 998.11 998.96 999.94
1019.13 1018.39 1017.48 1016.47 1014.09 1013.14 1012.80 1010.89 1008.93 1008.13 1007.39 1005.52 1004.10 1003.12 1002.06 1001.56 1000.47 999.63 999.13 999.47 1000.55 1001.31 1001.38 1001.38 1000.92 1000.89 1000.87 1000.88 1000.78 1000.52 1000.37 1000.04 999.61 999.06 998.74 998.88 998.71 998.10 997.30 996.68 996.28 996.18 996.91 997.66 998.84
1018.94 1018.41 1017.72 1016.83 1013.60 1013.48 1011.63 1009.80 1008.87 1008.50 1007.23 1003.58 1001.34 999.93 1000.61 1000.28 999.65 999.14 998.74 998.85 999.66 1000.34 1000.96 1000.84 1000.39 999.97 999.69 999.64 999.71 999.73 999.57 999.67 999.80 1000.11 1000.29 999.59 999.73 999.09 997.84 997.09 996.42 995.65 996.03 997.15 998.39
1018.61 1018.14 1017.67 1017.71 1016.59 1014.41 1011.43 1010.29 1009.60 1008.93 1007.34 1001.41 998.84 997.38 997.90 999.67 998.85 998.13 997.87 998.06 998.72 999.29 1000.33 999.86 999.82 999.20 998.92 998.54 998.50 998.74 998.91 999.58 1000.05 1000.69 1000.91 1000.44 1000.41 999.05 997.99 997.50 996.61 996.45 996.42 996.87 997.99
1018.50 1018.14 1017.94 1016.21 1016.41 1013.24 1011.79 1010.74 1009.98 1009.30 1006.01 1001.55 999.13 998.15 997.90 998.33 998.42 998.11 997.87 997.70 998.10 998.85 999.17 999.07 998.88 998.42 998.10 997.81 997.79 998.08 998.99 999.78 1000.62 1001.58 1001.84 1001.10 1000.82 999.34 998.31 997.62 996.86 996.39 996.95 997.27 998.04
1017.99 1017.26 1017.55 1016.70 1014.03 1011.82 1011.86 1010.85 1010.25 1008.25 1004.63 1001.66 1000.25 998.72 997.79 997.73 997.84 997.95 998.03 997.93 998.22 998.76 998.88 998.64 998.36 997.85 997.54 997.58 997.56 997.94 999.45 1000.89 1002.03 1002.73 1002.49 1000.90 1000.67 998.49 997.04 996.50 996.31 996.20 996.34 996.78 997.16
1017.22 1016.06 1014.42 1013.58 1012.69 1012.94 1012.08 1011.50 1009.90 1006.89 1004.85 1002.87 1001.10 999.54 998.31 997.34 997.24 997.20 997.35 997.57 997.57 998.22 998.49 998.64 998.37 997.59 996.98 997.22 997.62 998.06 999.17 1001.00 1002.32 1003.05 1001.99 1000.80 999.90 997.54 995.84 995.49 995.52 995.69 996.00 996.77 997.33
1017.05 1014.44 1012.93 1011.22 1011.85 1011.89 1012.00 1010.94 1008.57 1006.57 1004.71 1003.56 1002.08 1000.57 999.30 998.35 998.32 997.70 996.52 997.00 997.13 997.41 997.86 997.97 997.48 997.15 996.84 996.47 996.96 997.76 998.63 999.89 1001.62 1002.04 1002.19 1000.84 998.89 996.49 995.41 996.04 995.82 996.78 997.26 997.66 998.03
1017.66 1014.82 1011.72 1009.17 1010.66 1011.07 1011.30 1009.78 1007.97 1006.47 1005.39 1004.16 1003.04 1001.76 1000.71 1000.10 999.47 998.92 998.31 996.53 996.82 996.85 996.81 997.08 997.11 996.66 996.08 996.03 996.17 996.84 997.92 999.69 1000.87 1002.01 1002.24 1000.88 999.48 997.91 996.78 996.34 996.81 997.42 998.09 998.39 998.74
1017.37 1013.94 1009.77 1009.25 1009.88 1010.68 1010.34 1008.70 1007.07 1005.64 1004.44 1003.73 1003.03 1002.22 1001.79 1001.32 1000.74 1000.16 999.32 997.83 997.72 997.06 997.05 996.81 996.63 996.58 996.23 995.61 996.03 996.45 997.40 998.77 1000.05 1001.18 1001.89 1001.27 1000.31 998.66 997.93 997.47 997.84 998.04 998.41 998.78 999.50
1016.20 1013.24 1009.38 1009.18 1010.10 1009.71 1008.87 1007.57 1006.13 1005.15 1004.03 1003.21 1002.65 1002.52 1002.24 1001.91 1001.46 1000.73 1000.00 999.04 997.90 997.75 997.69 997.53 996.91 996.96 996.26 995.34 995.30 995.29 996.26 997.79 999.77 1000.74 1001.00 1000.88 1000.27 998.92 998.35 998.22 998.35 998.69 998.86 998.86 999.49
1016.60 1013.05 1009.55 1009.22 1009.56 1008.96 1008.00 1006.59 1005.44 1004.39 1003.59 1003.22 1003.09 1002.93 1002.72 1002.86 1002.51 1001.10 1000.09 999.19 998.44 998.02 998.11 997.89 997.33 997.27 996.70 995.68 994.97 995.25 995.81 996.84 998.00 999.29 1000.25 1001.20 1000.95 999.95 999.47 999.27 1000.27 999.64 999.79 999.93 1000.57
1016.90 1013.19 1010.15 1009.38 1009.22 1009.10 1008.27 1006.88 1005.40 1004.16 1003.63 1003.17 1003.27 1003.41 1003.26 1003.19 1002.64 1001.87 1000.73 999.46 999.43 999.16 998.83 998.42 998.54 998.49 997.58 996.26 995.69 995.89 996.21 996.21 997.49 999.34 999.62 1000.12 1001.17 1001.43 1000.56 1000.08 1000.55 1001.41 1000.79 1001.15 1001.61
1016.75 1013.50 1012.06 1010.54 1010.02 1009.44 1008.16 1007.04 1005.89 1004.94 1004.14 1003.44 1003.60 1003.62 1003.58 1003.52 1003.14 1002.53 1001.53 1000.22 999.49 999.45 999.02 1000.04 1000.24 999.69 997.98 996.58 996.28 995.79 996.45 996.96 997.74 998.29 999.08 1000.00 1000.65 1001.34 1001.13 1000.32 1001.41 1001.79 1004.03 1001.98 1002.24
1016.61 1014.53 1013.35 1012.29 1010.81 1009.70 1008.47 1007.73 1006.56 1005.70 1005.14 1004.33 1003.91 1003.84 1003.75 1003.90 1003.51 1002.65 1001.67 1001.09 1000.20 999.97 999.88 1000.57 1001.30 1001.08 999.31 997.68 997.14 997.02 997.42 997.52 997.91 998.24 998.39 999.37 1000.41 1000.04 1000.86 1000.70 1000.51 1001.67 1002.12 1002.07 1002.73
1016.31 1015.21 1014.51 1012.86 1011.47 1010.12 1008.68 1008.09 1007.24 1006.69 1005.67 1004.78 1004.17 1004.15 1004.24 1003.85 1003.52 1002.33 1001.30 1000.62 1000.35 1000.57 1000.97 1001.85 1002.71 1003.13 1001.72 1000.12 998.69 998.69 999.59 999.90 999.91 1000.04 998.57 999.86 1001.12 1001.55 1002.03 1002.16 1001.59 1001.48 1001.85 1002.43 1003.20
Thickness
5775 5780 5784 5788 5793 5797 5801 5805 5810 5816 5821 5826 5831 5835 5839 5844 5853 5852 5853 5879 5882 5885 5881 5880 5873 5871 5876 5866 5875 5876 5820 5817 5832 5836 5853 5870 5849 5862 5873 5858 5859 5863 5850 5847 5842
5768 5773 5779 5784 5789 5794 5799 5804 5807 5811 5816 5822 5829 5834 5836 5842 5852 5857 5889 5890 5890 5884 5874 5868 5865 5872 5860 5869 5873 5848 5828 5844 5879 5880 5872 5877 5868 5850 5853 5855 5845 5845 5856 5852 5843
5763 5766 5771 5777 5783 5789 5796 5802 5806 5811 5815 5819 5824 5831 5836 5839 5844 5869 5893 5890 5887 5885 5882 5878 5879 5871 5856 5869 5870 5864 5845 5878 5893 5900 5895 5877 5871 5863 5852 5837 5852 5840 5845 5848 5843
5756 5761 5766 5772 5777 5783 5790 5797 5803 5808 5812 5816 5820 5826 5834 5837 5816 5876 5886 5885 5884 5881 5874 5869 5866 5851 5844 5845 5869 5845 5879 5891 5897 5904 5900 5881 5877 5861 5867 5864 5876 5864 5859 5853 5844
5748 5753 5759 5766 5772 5778 5784 5790 5795 5801 5808 5811 5814 5819 5831 5825 5842 5882 5880 5877 5875 5872 5865 5859 5852 5851 5839 5851 5856 5851 5868 5882 5892 5896 5900 5903 5891 5884 5861 5889 5881 5870 5861 5854 5849
5743 5748 5754 5759 5765 5772 5780 5787 5792 5797 5801 5803 5807 5810 5812 5809 5877 5880 5875 5869 5869 5863 5864 5863 5857 5863 5850 5848 5844 5861 5866 5871 5881 5887 5896 5887 5887 5892 5889 5887 5870 5869 5863 5858 5855
5739 5744 5750 5756 5763 5769 5775 5783 5790 5796 5798 5798 5798 5802 5804 5827 5869 5874 5872 5868 5869 5866 5854 5868 5871 5853 5853 5839 5861 5857 5839 5858 5872 5885 5883 5899 5876 5873 5894 5895 5874 5867 5866 5862 5857
5734 5739 5743 5749 5757 5764 5770 5779 5790 5794 5796 5794 5792 5793 5792 5859 5865 5863 5870 5864 5870 5870 5865 5872 5872 5857 5848 5855 5844 5833 5836 5816 5866 5879 5890 5889 5842 5879 5901 5888 5863 5866 5865 5865 5860
5734 5737 5742 5748 5753 5758 5765 5778 5792 5794 5792 5785 5785 5782 5792 5860 5843 5873 5869 5854 5859 5860 5863 5868 5860 5839 5840 5814 5800 5817 5797 5819 5846 5889 5889 5884 5854 5883 5897 5885 5867 5871 5866 5868 5864
5730 5735 5740 5744 5749 5753 5760 5778 5794 5788 5785 5781 5784 5770 5802 5823 5848 5853 5862 5859 5847 5846 5838 5836 5827 5807 5805 5793 5762 5788 5802 5819 5829 5868 5885 5867 5865 5878 5892 5892 5877 5873 5864 5869 5869
5723 5728 5733 5738 5745 5748 5754 5766 5771 5769 5775 5765 5771 5782 5801 5829 5843 5837 5849 5842 5840 5827 5804 5824 5790 5774 5792 5805 5815 5817 5814 5815 5842 5872 5864 5862 5863 5873 5883 5885 5882 5875 5871 5870 5877
5716 5720 5726 5731 5742 5744 5737 5742 5753 5756 5749 5765 5770 5778 5795 5810 5795 5820 5848 5812 5807 5793 5814 5800 5782 5812 5823 5822 5817 5816 5810 5816 5842 5863 5862 5854 5851 5871 5883 5886 5893 5888 5883 5879 5875
5709 5711 5716 5720 5737 5740 5736 5740 5755 5753 5723 5749 5765 5766 5782 5794 5789 5803 5827 5818 5799 5788 5795 5786 5809 5830 5823 5817 5812 5813 5808 5815 5820 5844 5851 5844 5827 5849 5875 5888 5897 5899 5895 5891 5880
5702 5703 5706 5709 5731 5724 5726 5740 5740 5735 5688 5736 5756 5778 5780 5787 5773 5815 5825 5818 5799 5785 5793 5790 5818 5819 5819 5814 5823 5791 5836 5836 5830 5816 5782 5844 5773 5824 5852 5864 5883 5894 5890 5888 5880
5696 5697 5696 5693 5694 5702 5720 5725 5724 5710 5646 5751 5771 5810 5799 5766 5788 5797 5831 5816 5790 5791 5791 5784 5798 5806 5806 5819 5837 5814 5844 5832 5829 5807 5803 5808 5784 5808 5846 5851 5864 5876 5881 5885 5882
5689 5689 5685 5693 5685 5703 5707 5708 5700 5663 5657 5732 5770 5769 5768 5774 5776 5797 5801 5820 5817 5794 5800 5797 5823 5819 5819 5839 5843 5849 5830 5825 5817 5795 5753 5793 5790 5804 5821 5844 5861 5871 5874 5882 5877
5686 5687 5680 5679 5691 5704 5697 5690 5658 5651 5720 5727 5734 5756 5763 5767 5771 5778 5775 5775 5768 5751 5756 5788 5796 5820 5833 5816 5835 5833 5803 5748 5738 5737 5741 5804 5791 5820 5849 5865 5867 5871 5876 5879 5884
5684 5689 5696 5695 5697 5688 5685 5663 5644 5688 5701 5730 5739 5750 5750 5781 5779 5782 5775 5766 5788 5782 5764 5755 5748 5798 5826 5813 5803 5813 5794 5743 5723 5726 5768 5809 5778 5823 5870 5880 5883 5881 5880 5877 5876
5677 5694 5697 5706 5696 5689 5666 5645 5663 5687 5709 5711 5724 5726 5740 5768 5760 5763 5780 5774 5788 5793 5762 5758 5761 5813 5822 5832 5826 5802 5785 5807 5766 5775 5758 5783 5815 5855 5871 5863 5871 5861 5861 5860 5864
5663 5679 5695 5716 5698 5682 5654 5652 5673 5693 5703 5709 5696 5721 5714 5727 5734 5742 5748 5787 5789 5804 5811 5787 5756 5799 5816 5830 5833 5813 5821 5772 5763 5742 5735 5770 5796 5799 5838 5843 5852 5851 5849 5854 5860
5657 5674 5705 5708 5695 5666 5646 5663 5684 5704 5711 5705 5705 5710 5714 5717 5725 5729 5738 5768 5777 5783 5785 5781 5779 5778 5805 5798 5795 5801 5795 5797 5783 5771 5742 5742 5772 5826 5829 5843 5838 5843 5848 5847 5847
5659 5660 5702 5701 5658 5662 5659 5678 5693 5699 5712 5711 5717 5716 5714 5718 5716 5723 5725 5741 5778 5778 5762 5778 5775 5751 5775 5816 5830 5825 5811 5798 5762 5753 5766 5761 5773 5825 5842 5841 5842 5839 5842 5845 5842
5644 5660 5694 5688 5645 5658 5674 5685 5696 5698 5705 5703 5701 5714 5718 5705 5696 5721 5731 5759 5770 5769 5761 5774 5761 5749 5763 5792 5816 5799 5808 5807 5796 5783 5764 5749 5763 5813 5819 5826 5815 5826 5833 5834 5835
5635 5648 5673 5673 5669 5658 5657 5668 5679 5705 5704 5710 5704 5707 5706 5701 5713 5706 5721 5752 5755 5759 5761 5770 5758 5753 5734 5765 5793 5785 5795 5815 5797 5770 5776 5775 5772 5780 5796 5809 5801 5767 5811 5820 5819
5631 5646 5652 5645 5649 5655 5664 5668 5672 5676 5695 5703 5694 5698 5696 5686 5695 5700 5719 5733 5747 5753 5761 5742 5730 5749 5769 5791 5796 5799 5788 5792 5788 5790 5777 5778 5772 5774 5784 5799 5789 5792 5761 5805 5807
5622 5629 5635 5632 5645 5650 5655 5654 5662 5673 5676 5680 5681 5693 5695 5681 5689 5692 5713 5719 5722 5741 5743 5739 5723 5724 5752 5787 5792 5787 5783 5794 5800 5802 5801 5798 5776 5791 5785 5798 5799 5791 5794 5797 5798
5621 5625 5620 5625 5634 5640 5650 5652 5656 5664 5676 5685 5687 5685 5684 5695 5698 5712 5725 5730 5735 5731 5727 5719 5713 5705 5720 5751 5769 5754 5751 5754 5765 5765 5797 5770 5773 5772 5775 5781 5790 5797 5794 5790 5786